1511514000.91,13983,12.06,73686.3,3.85,-31.17,-31.73,0,*71
1511514002.13,13984,12.06,73686.0,3.85,-31.17,-31.51,0,*76
1511514003.35,13985,12.06,73684.0,3.85,-31.01,-31.39,0,*7E
1511514004.63,13986,12.06,73686.3,3.83,-31.39,-31.95,0,*76
1511514005.9,13987,12.06,73686.0,3.83,-31.51,-32.07,0,*71
1511514007.12,13988,12.06,73682.5,3.83,-31.17,-31.67,0,*79
1511514008.36,13989,12.06,73682.5,3.83,-31.01,-31.39,0,*74
1511514009.63,13990,12.06,73680.8,3.83,-31.39,-31.91,0,*75
1511514010.87,13991,12.06,73680.0,3.83,-31.05,-31.57,0,*71
1511514012.11,13992,12.06,73680.5,3.83,-31.01,-31.39,0,*7E
1511514013.36,13993,12.06,73682.0,3.83,-31.23,-31.79,0,*7B
1511514014.61,13994,12.06,73678.8,3.83,-31.23,-31.67,0,*73
1511514015.88,13995,12.06,73680.0,3.83,-31.23,-31.73,0,*77
1511514017.13,13996,12.06,73676.5,3.83,-31.05,-31.51,0,*70
1511514018.41,13997,12.06,73680.5,3.83,-31.57,-32.07,0,*76
1511514019.68,13998,12.06,73682.3,3.83,-31.39,-31.91,0,*7D
1511514020.92,13999,12.06,73676.3,3.79,-31.51,-32.01,0,*7D
1511514022.15,14000,12.06,73682.3,3.81,-31.45,-31.91,0,*7B
1511514023.38,14001,12.06,73680.3,3.79,-31.45,-31.79,0,*7B
1511514024.63,14002,12.06,73678.0,3.81,-31.11,-31.57,0,*72
1511514025.87,14003,12.06,73682.3,3.79,-31.51,-32.01,0,*70
1511514027.12,14004,12.06,73680.5,3.79,-31.45,-31.85,0,*7D
1511514028.37,14005,12.06,73682.3,3.79,-30.95,-31.33,0,*7D
1511514029.59,14006,12.06,73682.5,3.79,-31.17,-31.67,0,*74
1511514030.82,14007,12.06,73680.3,3.81,-30.89,-31.45,0,*74
1511514032.04,14008,12.06,73678.8,3.79,-31.29,-31.67,0,*77
1511514033.27,14009,12.0,73670.0,3.79,-31.29,-31.67,0,*76
1511514034.51,14010,12.0,73668.8,3.79,-31.01,-31.51,0,*71
1511514035.73,14011,12.06,73678.5,3.79,-31.33,-31.79,0,*7B
1511514037.01,14012,12.06,73678.8,3.79,-31.51,-31.91,0,*7A
1511514038.25,14013,12.06,73676.0,3.79,-31.51,-32.01,0,*71
1511514039.47,14014,12.06,73674.3,3.79,-31.67,-32.23,0,*73
1511514040.73,14015,12.06,73678.5,3.77,-31.51,-32.07,0,*7F
1511514041.94,14016,12.0,73672.0,3.77,-31.39,-31.67,0,*77
1511514043.17,14017,12.06,73676.3,3.77,-31.33,-31.85,0,*70
1511514044.43,14018,12.0,73680.0,3.75,-31.39,-31.85,0,*77
1511514045.68,14019,12.0,73678.3,3.75,-31.01,-31.51,0,*74
1511514046.9,14020,12.0,73676.3,3.77,-31.29,-31.51,0,*76
1511514048.16,14021,12.0,73678.0,3.75,-30.83,-31.23,0,*71
1511514049.4,14022,12.0,73682.3,3.75,-30.89,-31.33,0,*79
1511514050.6,14023,12.0,73680.3,3.77,-30.83,-31.33,0,*70
1511514051.83,14024,12.0,73678.8,3.77,-30.95,-31.33,0,*70
1511514053.1,14025,12.0,73678.3,3.75,-30.51,-30.89,0,*7B
1511514054.35,14026,12.0,73676.3,3.77,-30.05,-30.55,0,*7A
1511514055.57,14027,12.0,73676.3,3.77,-30.23,-30.55,0,*7F
1511514056.82,14028,12.0,73674.8,3.79,-29.95,-30.39,0,*71
1511514058.11,14029,12.0,73680.8,3.79,-29.51,-29.89,0,*7B
1511514059.36,14030,12.0,73680.3,3.79,-29.57,-30.05,0,*79
1511514060.59,14031,12.0,73678.3,3.83,-29.95,-30.33,0,*76
1511514061.82,14032,12.0,73676.5,3.83,-30.33,-30.83,0,*7A
1511514063.07,14033,12.0,73678.5,3.81,-30.39,-30.77,0,*78
1511514064.32,14034,12.0,73678.0,3.83,-30.01,-30.33,0,*76
1511514065.55,14035,12.0,73678.3,3.85,-29.45,-30.01,0,*78
1511514066.77,14036,12.0,73678.8,3.85,-29.39,-29.79,0,*77
1511514067.98,14037,12.0,73676.5,3.85,-29.57,-29.95,0,*7C
1511514069.22,14038,12.0,73676.5,3.87,-29.73,-30.11,0,*73
1511514070.45,14039,12.0,73678.8,3.89,-29.57,-30.05,0,*7F
1511514071.72,14040,12.0,73676.5,3.87,-29.73,-30.05,0,*79
1511514072.95,14041,12.0,73678.0,3.89,-29.89,-30.27,0,*73
1511514074.17,14042,12.0,73678.3,3.89,-30.05,-30.45,0,*78
1511514075.4,14043,12.0,73680.8,3.89,-30.23,-30.61,0,*7B
1511514076.62,14044,12.0,73686.8,3.89,-30.45,-30.95,0,*77
1511514077.87,14045,12.0,73678.3,3.87,-30.95,-31.33,0,*78
1511514079.14,14046,12.0,73678.5,3.87,-31.11,-31.51,0,*72
1511514080.37,14047,12.0,73674.0,3.89,-31.17,-31.61,0,*78
1511514081.59,14048,12.0,73668.3,3.87,-31.29,-31.67,0,*72
1511514082.84,14049,12.0,73668.3,3.87,-31.17,-31.61,0,*78
1511514084.06,14050,12.0,73668.0,3.87,-31.45,-32.01,0,*72
1511514085.3,14051,12.0,73678.3,3.87,-31.51,-32.01,0,*76
1511514086.55,14052,12.0,73668.3,3.85,-31.73,-32.29,0,*7D
1511514087.77,14053,12.0,73662.8,3.83,-31.67,-32.23,0,*75
1511514089.01,14054,12.0,73664.5,3.83,-31.51,-32.13,0,*74
1511514090.29,14055,12.0,73666.8,3.83,-31.51,-32.07,0,*70
1511514091.54,14056,12.0,73668.8,3.83,-31.73,-32.13,0,*76
1511514092.78,14057,12.0,73676.3,3.83,-31.05,-31.57,0,*75
1511514093.99,14058,12.0,73676.3,3.83,-31.33,-31.67,0,*7C
1511514095.24,14059,12.0,73678.3,3.81,-31.23,-31.73,0,*7B
1511514096.5,14060,12.0,73676.5,3.81,-31.57,-32.19,0,*7D
1511514097.72,14061,12.0,73678.5,3.81,-31.39,-31.79,0,*71
1511514098.92,14062,12.0,73684.8,3.81,-31.05,-31.45,0,*72
1511514100.16,14063,12.0,73680.0,3.81,-30.55,-30.95,0,*7B
1511514101.36,14064,12.0,73682.0,3.81,-30.33,-30.67,0,*71
1511514102.61,14065,12.0,73680.8,3.81,-30.17,-30.51,0,*73
1511514103.83,14066,11.94,73678.3,3.81,-30.05,-30.23,0,*76
1511514105.06,14067,12.0,73676.8,3.81,-29.89,-30.23,0,*7B
1511514106.29,14068,12.0,73682.3,3.83,-30.27,-30.83,0,*70
1511514107.49,14069,11.94,73680.3,3.85,-30.67,-31.05,0,*7C
1511514108.75,14070,11.94,73678.5,3.85,-30.89,-31.23,0,*70
1511514109.98,14071,11.94,73676.0,3.83,-30.27,-30.67,0,*72
1511514111.23,14072,11.94,73676.5,3.83,-30.11,-30.51,0,*71
1511514112.47,14073,11.94,73678.3,3.83,-31.01,-31.51,0,*71
1511514113.71,14074,11.94,73680.0,3.83,-30.61,-31.05,0,*70
1511514114.94,14075,11.94,73672.0,3.85,-30.61,-31.01,0,*73
1511514116.17,14076,11.94,73680.8,3.85,-30.27,-30.73,0,*76
1511514117.4,14077,11.94,73682.5,3.85,-29.83,-30.17,0,*73
1511514118.63,14078,11.94,73676.5,3.85,-30.33,-30.73,0,*7D
1511514119.85,14079,11.94,73684.5,3.85,-30.11,-30.51,0,*7C
1511514121.07,14080,11.94,73680.5,3.85,-30.01,-30.45,0,*7E
1511514122.3,14081,11.94,73674.0,3.89,-30.39,-30.83,0,*72
1511514123.53,14082,11.94,73678.3,3.87,-30.83,-31.17,0,*72
1511514124.76,14083,11.94,73682.3,3.87,-30.27,-30.67,0,*7B
1511514126.0,14084,11.94,73686.8,3.87,-30.61,-31.01,0,*7F
1511514127.26,14085,11.94,73676.5,3.87,-30.27,-30.61,0,*7B
1511514128.49,14086,11.94,73672.8,3.89,-30.23,-30.61,0,*72
1511514129.7,14087,11.94,73676.8,3.89,-30.27,-30.83,0,*7B
1511514130.95,14088,11.94,73682.5,3.87,-30.23,-30.61,0,*72
1511514132.2,14089,11.94,73680.8,3.89,-30.61,-30.95,0,*70
1511514133.45,14090,11.94,73682.5,3.89,-30.39,-30.77,0,*79
1511514134.69,14091,11.94,73680.0,3.93,-30.39,-30.89,0,*72
1511514135.93,14092,11.94,73680.3,3.93,-30.55,-30.95,0,*76
1511514137.16,14093,11.94,73680.8,3.89,-30.39,-30.83,0,*71
1511514138.4,14094,11.94,73684.3,3.89,-30.55,-30.95,0,*7B
1511514139.65,14095,11.94,73676.5,3.89,-30.61,-31.11,0,*70
1511514140.87,14096,11.94,73676.5,3.93,-30.77,-31.29,0,*74
1511514142.11,14097,11.94,73682.3,3.89,-31.11,-31.45,0,*75
1511514143.31,14098,11.94,73680.5,3.89,-30.67,-31.01,0,*7A
1511514144.55,14099,11.94,73680.5,3.89,-30.39,-30.95,0,*7C
1511514145.8,14100,11.94,73682.3,3.93,-30.01,-30.39,0,*7B
1511514147.02,14101,11.94,73680.8,3.89,-30.67,-30.95,0,*77
1511514148.24,14102,11.94,73684.5,3.93,-30.23,-30.55,0,*73
1511514149.48,14103,11.94,73684.8,3.93,-29.73,-30.01,0,*7E
1511514150.72,14104,11.94,73680.3,3.93,-30.61,-30.95,0,*7F
1511514151.94,14105,11.94,73678.0,3.93,-30.73,-31.05,0,*75
1511514153.18,14106,11.94,73678.5,3.93,-30.61,-30.95,0,*7D
1511514154.43,14107,11.94,73684.5,3.95,-30.27,-30.55,0,*74
1511514155.66,14108,11.94,73678.5,3.95,-30.33,-30.83,0,*75
1511514156.89,14109,11.94,73680.8,3.93,-30.55,-30.95,0,*75
1511514158.17,14110,11.94,73678.5,3.95,-30.51,-30.89,0,*72
1511514159.44,14111,11.94,73680.0,3.95,-30.17,-30.51,0,*74
1511514160.66,14112,11.94,73680.8,3.93,-30.61,-31.05,0,*70
1511514161.9,14113,11.94,73676.8,3.93,-30.55,-30.89,0,*73
1511514163.13,14114,11.94,73680.5,3.95,-30.67,-31.05,0,*76
1511514164.4,14115,11.94,73680.5,3.95,-30.51,-30.89,0,*77
1511514165.65,14116,11.88,73674.0,3.95,-30.73,-31.01,0,*75
1511514166.9,14117,11.88,73678.8,3.95,-30.83,-31.23,0,*7B
1511514168.11,14118,11.94,73678.5,3.93,-30.55,-31.05,0,*7D
1511514169.33,14119,11.88,73682.8,3.95,-31.01,-31.17,0,*79
1511514170.55,14120,11.94,73686.5,3.93,-30.73,-31.05,0,*72
1511514171.79,14121,11.88,73682.3,3.93,-30.55,-30.95,0,*7F
1511514173.01,14122,11.88,73678.0,3.95,-30.83,-31.33,0,*7C
1511514174.24,14123,11.88,73686.5,3.95,-30.83,-31.17,0,*7B
1511514175.46,14124,11.88,73684.5,3.95,-30.67,-31.01,0,*71
1511514176.71,14125,11.94,73686.0,3.95,-29.89,-30.45,0,*79
1511514177.95,14126,11.88,73678.0,3.93,-30.61,-30.95,0,*7F
1511514179.17,14127,11.88,73682.3,3.93,-31.05,-31.51,0,*74
1511514180.42,14128,11.88,73684.5,3.93,-31.11,-31.39,0,*70
1511514181.67,14129,11.88,73684.0,3.95,-31.01,-31.39,0,*76
1511514182.91,14130,11.88,73686.8,3.93,-30.89,-31.23,0,*72
1511514184.16,14131,11.88,73684.8,3.93,-30.89,-31.23,0,*73
1511514185.39,14132,11.88,73676.8,3.93,-30.33,-30.73,0,*75
1511514186.64,14133,11.88,73682.8,3.93,-30.77,-31.23,0,*70
1511514187.86,14134,11.88,73686.3,3.93,-31.05,-31.39,0,*78
1511514189.08,14135,11.88,73684.5,3.93,-30.33,-30.73,0,*72
1511514190.31,14136,11.88,73682.0,3.93,-29.83,-30.17,0,*70
1511514191.54,14137,11.88,73684.8,3.93,-29.89,-30.23,0,*7C
1511514192.79,14138,11.88,73684.5,3.97,-30.01,-30.27,0,*7B
1511514194.02,14139,11.88,73692.0,3.97,-29.67,-30.11,0,*77
1511514195.24,14140,11.88,73686.3,3.95,-29.79,-30.11,0,*74
1511514196.5,14141,11.88,73682.8,3.97,-30.01,-30.67,0,*71
1511514197.74,14142,11.88,73684.8,3.95,-30.45,-30.89,0,*70
1511514198.98,14143,11.88,73684.0,3.97,-30.27,-30.83,0,*7D
1511514200.22,14144,11.88,73686.0,3.97,-30.45,-30.83,0,*7E
1511514201.42,14145,11.88,73688.8,3.99,-30.11,-30.45,0,*7A
1511514202.68,14146,11.88,73686.0,3.97,-29.67,-30.01,0,*7E
1511514203.91,14147,11.88,73688.8,3.97,-29.83,-30.11,0,*74
1511514205.14,14148,11.88,73686.3,3.97,-29.61,-29.95,0,*73
1511514206.43,14149,11.88,73684.3,4.01,-29.39,-29.89,0,*7A
1511514207.69,14150,11.88,73688.5,4.01,-29.89,-30.11,0,*70
1511514208.96,14151,11.88,73686.3,4.01,-30.05,-30.51,0,*79
1511514210.21,14152,11.88,73684.8,4.03,-29.73,-30.05,0,*70
1511514211.44,14153,11.88,73690.0,4.03,-30.27,-30.61,0,*7A
1511514212.67,14154,11.88,73690.8,4.03,-30.73,-31.05,0,*7F
1511514213.93,14155,11.88,73694.0,4.01,-30.11,-30.61,0,*7B
1511514215.16,14156,11.88,73688.0,4.01,-30.27,-30.67,0,*7B
1511514216.44,14157,11.88,73686.0,4.01,-30.61,-30.95,0,*75
1511514217.69,14158,11.88,73688.0,4.03,-30.95,-31.39,0,*74
1511514218.92,14159,11.88,73686.3,4.03,-30.77,-31.17,0,*75
1511514220.17,14160,11.88,73690.5,4.01,-30.45,-30.77,0,*7B
1511514221.43,14161,11.88,73688.3,4.01,-30.27,-30.51,0,*7A
1511514222.66,14162,11.88,73688.8,4.03,-30.45,-30.89,0,*7A
1511514223.91,14163,11.81,73684.0,4.03,-30.89,-31.23,0,*7A
1511514225.13,14164,11.88,73690.5,4.01,-31.01,-31.33,0,*7F
1511514226.39,14165,11.88,73690.3,4.01,-31.11,-31.33,0,*7F
1511514227.62,14166,11.88,73690.0,4.01,-30.83,-31.17,0,*70
1511514228.85,14167,11.81,73682.5,4.01,-30.45,-30.83,0,*77
1511514230.13,14168,11.88,73680.8,4.01,-30.39,-30.77,0,*78
1511514231.39,14169,11.88,73686.3,4.01,-30.23,-30.61,0,*75
1511514232.63,14170,11.81,73684.8,4.01,-30.27,-30.67,0,*7F
1511514233.9,14171,11.88,73688.8,4.01,-30.39,-30.51,0,*74
1511514235.14,14172,11.88,73688.0,4.01,-30.27,-30.67,0,*7D
1511514236.4,14173,11.81,73684.5,4.01,-30.23,-30.61,0,*7E
1511514237.63,14174,11.81,73684.0,4.01,-30.11,-30.45,0,*7E
1511514238.88,14175,11.81,73680.8,4.01,-30.67,-31.11,0,*7E
1511514240.14,14176,11.81,73688.0,4.03,-30.89,-31.23,0,*7E
1511514241.36,14177,11.81,73688.5,4.03,-30.89,-31.29,0,*75
1511514242.62,14178,11.81,73686.5,4.01,-30.67,-31.11,0,*73
1511514243.88,14179,11.81,73690.8,4.01,-30.77,-31.17,0,*75
1511514245.13,14180,11.81,73686.0,4.01,-30.67,-30.95,0,*79
1511514246.41,14181,11.81,73688.5,4.01,-30.39,-30.77,0,*7F
1511514247.64,14182,11.81,73690.5,4.01,-30.45,-30.83,0,*7C
1511514248.93,14183,11.81,73682.3,4.01,-30.51,-30.77,0,*73
1511514250.2,14184,11.81,73684.3,4.01,-30.61,-30.95,0,*7B
1511514251.41,14185,11.81,73688.3,3.99,-30.45,-30.83,0,*7D
1511514252.62,14186,11.81,73686.5,3.99,-30.11,-30.45,0,*75
1511514253.82,14187,11.81,73684.3,3.99,-30.45,-30.83,0,*7F
1511514255.07,14188,11.81,73688.0,4.01,-30.23,-30.51,0,*79
1511514256.31,14189,11.81,73686.5,4.01,-30.23,-30.67,0,*7D
1511514257.56,14190,11.81,73686.3,4.01,-30.11,-30.51,0,*71
1511514258.81,14191,11.81,73690.8,4.01,-30.11,-30.51,0,*70
1511514260.05,14192,11.81,73686.3,4.01,-30.27,-30.67,0,*73
1511514261.3,14193,11.81,73684.0,4.01,-30.11,-30.51,0,*72
1511514262.56,14194,11.81,73690.0,4.01,-30.39,-30.67,0,*7A
1511514263.79,14195,11.81,73686.3,4.03,-30.45,-30.77,0,*73
1511514265.05,14196,11.81,73690.8,4.01,-30.27,-30.61,0,*71
1511514266.27,14197,11.81,73692.5,4.03,-30.17,-30.45,0,*77
1511514267.5,14198,11.81,73684.0,4.03,-29.83,-30.05,0,*79
1511514268.73,14199,11.81,73686.5,4.03,-30.33,-30.73,0,*7A
1511514269.95,14200,11.81,73686.8,4.03,-30.45,-30.89,0,*7D
1511514271.19,14201,11.81,73690.5,4.01,-30.27,-30.67,0,*7A
1511514272.42,14202,11.81,73686.5,4.05,-29.79,-30.11,0,*7F
1511514273.68,14203,11.81,73688.0,4.05,-30.27,-30.55,0,*7D
1511514274.94,14204,11.81,73684.8,4.05,-30.27,-30.73,0,*7E
1511514276.18,14205,11.81,73684.5,4.05,-30.27,-30.67,0,*7A
1511514277.4,14206,11.81,73684.5,4.03,-30.89,-31.05,0,*7E
1511514278.64,14207,11.81,73688.0,4.05,-30.83,-31.17,0,*70
1511514279.87,14208,11.81,73684.3,4.01,-31.01,-31.45,0,*77
1511514281.12,14209,11.81,73688.3,4.03,-30.77,-31.11,0,*75
1511514282.36,14210,11.81,73690.3,4.03,-30.55,-30.95,0,*70
1511514283.61,14211,11.81,73686.3,4.03,-30.73,-31.11,0,*78
1511514284.86,14212,11.81,73688.5,4.01,-31.17,-31.57,0,*78
1511514286.09,14213,11.81,73684.8,4.01,-30.83,-31.17,0,*71
1511514287.35,14214,11.81,73692.8,4.01,-30.67,-31.11,0,*7A
1511514288.58,14215,11.81,73688.0,4.01,-30.67,-31.01,0,*7A
1511514289.84,14216,11.75,73690.8,4.05,-30.83,-31.23,0,*77
1511514291.1,14217,11.81,73692.3,4.01,-30.95,-31.17,0,*72
1511514292.35,14218,11.75,73688.0,4.01,-31.17,-31.51,0,*74
1511514293.6,14219,11.81,73690.3,4.01,-31.17,-31.51,0,*75
1511514294.85,14220,11.75,73688.8,4.01,-31.17,-31.57,0,*79
1511514296.11,14221,11.81,73692.0,4.01,-31.45,-31.91,0,*75
1511514297.36,14222,11.81,73688.8,4.01,-31.57,-32.01,0,*7F
1511514298.6,14223,11.75,73680.5,3.99,-31.45,-31.85,0,*74
1511514299.83,14224,11.75,73682.3,3.99,-31.29,-31.51,0,*70
1511514301.09,14225,11.81,73680.0,3.99,-31.11,-31.51,0,*7A
1511514302.34,14226,11.75,73680.3,3.97,-31.17,-31.73,0,*71
1511514303.58,14227,11.75,73680.3,3.99,-31.11,-31.45,0,*7D
1511514304.8,14228,11.75,73676.5,3.99,-31.17,-31.57,0,*77
1511514306.04,14229,11.75,73676.5,3.97,-30.83,-31.05,0,*73
1511514307.27,14230,11.75,73676.0,3.97,-30.67,-31.01,0,*75
1511514308.52,14231,11.75,73678.8,3.97,-30.73,-31.05,0,*75
1511514309.8,14232,11.75,73680.0,3.97,-30.17,-30.51,0,*74
1511514311.03,14233,11.75,73682.0,3.99,-30.23,-30.61,0,*7F
1511514312.31,14234,11.75,73682.8,3.97,-30.55,-30.89,0,*71
1511514313.56,14235,11.75,73680.8,3.97,-30.33,-30.55,0,*71
1511514314.8,14236,11.75,73682.3,3.97,-29.95,-30.33,0,*76
1511514316.04,14237,11.75,73678.8,3.99,-30.27,-30.61,0,*7F
1511514317.27,14238,11.75,73678.0,3.99,-30.23,-30.51,0,*77
1511514318.52,14239,11.75,73682.5,3.97,-30.27,-30.55,0,*78
1511514319.77,14240,11.75,73682.5,4.01,-30.45,-30.95,0,*76
1511514321.01,14241,11.75,73684.0,3.99,-30.27,-30.61,0,*7E
1511514322.22,14242,11.75,73690.5,3.99,-30.27,-30.83,0,*71
1511514323.5,14243,11.75,73692.5,4.01,-30.61,-30.95,0,*73
1511514324.75,14244,11.75,73690.8,4.01,-30.39,-30.67,0,*74
1511514325.98,14245,11.75,73690.0,4.01,-30.45,-30.83,0,*74
1511514327.25,14246,11.75,73688.5,4.01,-30.27,-30.77,0,*78
1511514328.51,14247,11.75,73684.5,4.01,-30.83,-31.11,0,*76
1511514329.76,14248,11.75,73688.3,4.01,-31.29,-31.57,0,*7A
1511514331.01,14249,11.75,73688.0,4.01,-31.29,-31.51,0,*7D
1511514332.26,14250,11.75,73684.0,4.01,-31.29,-31.57,0,*73
1511514333.47,14251,11.75,73686.3,3.99,-31.17,-31.45,0,*7A
1511514334.72,14252,11.75,73682.3,3.97,-31.05,-31.39,0,*7F
1511514335.93,14253,11.75,73680.5,3.99,-31.17,-31.45,0,*78
1511514337.18,14254,11.75,73684.5,3.97,-31.05,-31.39,0,*79
1511514338.44,14255,11.75,73680.5,3.97,-31.17,-31.39,0,*7B
1511514339.72,14256,11.75,73680.8,3.97,-31.39,-31.95,0,*72
1511514340.97,14257,11.75,73684.5,3.97,-31.39,-31.79,0,*71
1511514342.25,14258,11.75,73680.3,3.97,-31.73,-32.07,0,*7A
1511514343.5,14259,11.75,73676.3,3.95,-31.73,-32.13,0,*7C
1511514344.77,14260,11.75,73684.8,3.95,-31.57,-31.91,0,*79
1511514346.02,14261,11.75,73684.3,3.95,-31.61,-32.01,0,*77
1511514347.3,14262,11.75,73682.8,3.95,-31.57,-31.91,0,*7B
1511514348.51,14263,11.75,73684.0,3.93,-31.57,-32.01,0,*76
1511514349.71,14264,11.69,73682.3,3.93,-31.67,-32.13,0,*71
1511514350.95,14265,11.75,73686.0,3.93,-31.57,-31.85,0,*7F
1511514352.15,14266,11.75,73684.5,3.89,-31.67,-32.01,0,*7B
1511514353.38,14267,11.75,73680.0,3.89,-31.45,-31.85,0,*75
1511514354.58,14268,11.69,73684.5,3.89,-31.45,-31.67,0,*76
1511514355.82,14269,11.75,73684.0,3.87,-31.01,-31.51,0,*7C
1511514357.05,14270,11.69,73682.3,3.89,-31.45,-31.91,0,*76
1511514358.28,14271,11.69,73678.0,3.89,-31.45,-31.85,0,*72
1511514359.5,14272,11.69,73684.3,3.87,-31.33,-31.67,0,*72
1511514360.77,14273,11.69,73682.5,3.87,-31.61,-31.91,0,*7D
1511514362.0,14274,11.69,73682.3,3.89,-31.67,-32.07,0,*7E
1511514363.23,14275,11.69,73680.0,3.85,-31.67,-32.07,0,*73
1511514364.45,14276,11.69,73686.0,3.85,-31.67,-32.07,0,*70
1511514365.69,14277,11.69,73686.8,3.85,-31.51,-31.73,0,*74
1511514366.97,14278,11.75,73688.0,3.87,-31.61,-32.07,0,*7A
1511514368.22,14279,11.69,73680.8,3.85,-31.51,-31.91,0,*76
1511514369.49,14280,11.69,73676.5,3.83,-31.51,-31.91,0,*76
1511514370.73,14281,11.69,73678.0,3.83,-31.67,-32.07,0,*7E
1511514371.96,14282,11.69,73676.3,3.81,-31.57,-31.79,0,*76
1511514373.18,14283,11.69,73680.5,3.81,-31.29,-31.61,0,*77
1511514374.43,14284,11.69,73690.5,3.81,-31.11,-31.57,0,*7E
1511514375.68,14285,11.69,73684.5,3.83,-31.17,-31.39,0,*73
1511514376.93,14286,11.69,73690.0,3.83,-31.05,-31.23,0,*78
1511514378.18,14287,11.69,73686.5,3.81,-31.11,-31.39,0,*75
1511514379.43,14288,11.69,73686.0,3.81,-30.55,-30.89,0,*71
1511514380.66,14289,11.69,73694.0,3.83,-30.11,-30.33,0,*73
1511514381.86,14290,11.69,73692.3,3.85,-30.33,-30.67,0,*7C
1511514383.14,14291,11.69,73694.3,3.83,-30.51,-30.89,0,*7F
1511514384.36,14292,11.69,73692.8,3.85,-30.89,-31.17,0,*79
1511514385.61,14293,11.69,73690.0,3.83,-30.61,-31.01,0,*7F
1511514386.8,14294,11.69,73682.5,3.85,-31.05,-31.33,0,*7C
1511514388.02,14295,11.69,73688.5,3.85,-31.39,-31.67,0,*73
1511514389.26,14296,11.69,73690.3,3.83,-31.17,-31.39,0,*71
1511514390.54,14297,11.69,73690.5,3.83,-31.23,-31.57,0,*7F
1511514391.75,14298,11.69,73688.0,3.83,-31.33,-31.67,0,*72
1511514393.0,14299,11.69,73690.0,3.83,-31.39,-31.67,0,*79
1511514394.24,14300,11.69,73690.8,3.81,-31.39,-31.61,0,*7C
1511514395.45,14301,11.69,73686.5,3.81,-31.45,-31.79,0,*7F
1511514396.69,14302,11.69,73684.8,3.83,-31.17,-31.51,0,*73
1511514397.95,14303,11.69,73686.0,3.79,-31.45,-31.61,0,*73
1511514399.2,14304,11.69,73686.3,3.79,-30.95,-31.33,0,*7F
1511514400.45,14305,11.69,73688.3,3.81,-31.11,-31.57,0,*76
1511514401.68,14306,11.69,73680.8,3.81,-31.11,-31.29,0,*7C
1511514402.9,14307,11.69,73684.5,3.81,-31.29,-31.61,0,*7A
1511514404.14,14308,11.69,73690.3,3.81,-31.23,-31.45,0,*79
1511514405.39,14309,11.69,73690.0,3.79,-31.11,-31.33,0,*7F
1511514406.61,14310,11.69,73686.3,3.81,-30.67,-30.95,0,*7D
1511514407.87,14311,11.69,73688.5,3.79,-31.11,-31.33,0,*76
1511514409.11,14312,11.69,73688.5,3.79,-30.61,-31.01,0,*72
1511514410.33,14313,11.69,73688.3,3.79,-30.23,-30.45,0,*74
1511514411.56,14314,11.69,73690.5,3.81,-29.89,-30.23,0,*7C
1511514412.82,14315,11.69,73688.5,3.85,-30.01,-30.17,0,*76
1511514414.04,14316,11.63,73684.8,3.83,-29.83,-30.11,0,*77
1511514415.26,14317,11.69,73690.3,3.83,-30.27,-30.45,0,*71
1511514416.49,14318,11.69,73688.5,3.83,-29.95,-30.11,0,*7E
1511514417.71,14319,11.63,73688.8,3.85,-30.45,-30.73,0,*78
1511514418.9,14320,11.69,73692.3,3.85,-31.05,-31.33,0,*72
1511514420.13,14321,11.69,73694.3,3.85,-30.61,-30.83,0,*7A
1511514421.36,14322,11.63,73690.3,3.85,-30.45,-30.73,0,*70
1511514422.59,14323,11.63,73690.0,3.85,-30.67,-30.89,0,*74
1511514423.81,14324,11.63,73688.8,3.85,-30.45,-30.73,0,*76
1511514425.09,14325,11.63,73692.8,3.87,-30.55,-30.77,0,*70
1511514426.31,14326,11.63,73690.0,3.85,-30.45,-30.61,0,*77
1511514427.54,14327,11.63,73690.8,3.87,-29.95,-30.23,0,*77
1511514428.76,14328,11.63,73692.5,3.87,-29.95,-30.27,0,*7C
1511514429.99,14329,11.63,73692.0,3.87,-29.95,-30.23,0,*79
1511514431.24,14330,11.63,73694.8,3.87,-30.55,-30.83,0,*7F
1511514432.46,14331,11.69,73696.0,3.87,-30.27,-30.45,0,*71
1511514433.66,14332,11.63,73692.0,3.89,-30.23,-30.45,0,*78
1511514434.91,14333,11.63,73688.0,3.87,-31.11,-31.33,0,*77
1511514436.14,14334,11.63,73694.0,3.89,-31.11,-31.33,0,*7E
1511514437.37,14335,11.63,73696.5,3.87,-31.17,-31.45,0,*76
1511514438.62,14336,11.63,73688.3,3.87,-31.11,-31.33,0,*72
1511514439.86,14337,11.63,73684.5,3.87,-31.33,-31.51,0,*77
1511514441.07,14338,11.63,73688.3,3.89,-31.29,-31.45,0,*78
1511514442.29,14339,11.63,73688.0,3.87,-31.33,-31.67,0,*7C
1511514443.51,14340,11.63,73686.0,3.87,-31.33,-31.67,0,*72
1511514444.73,14341,11.63,73692.0,3.87,-31.17,-31.45,0,*75
1511514445.98,14342,11.63,73694.0,3.87,-31.17,-31.51,0,*73
1511514447.26,14343,11.63,73692.8,3.83,-31.23,-31.51,0,*71
1511514448.48,14344,11.63,73688.8,3.85,-31.57,-31.79,0,*79
1511514449.72,14345,11.63,73692.3,3.85,-31.51,-31.73,0,*74
1511514450.97,14346,11.63,73692.5,3.83,-31.73,-32.13,0,*74
1511514452.22,14347,11.63,73692.0,3.83,-31.51,-31.79,0,*7A
1511514453.44,14348,11.63,73688.8,3.83,-31.79,-32.13,0,*70
1511514454.66,14349,11.63,73684.0,3.81,-31.57,-31.79,0,*70
1511514455.92,14350,11.63,73680.3,3.81,-31.11,-31.39,0,*7E
1511514457.12,14351,11.63,73682.8,3.81,-31.45,-31.79,0,*7A
1511514458.35,14352,11.63,73676.0,3.81,-31.79,-32.07,0,*7C
1511514459.6,14353,11.63,73684.5,3.81,-31.73,-31.85,0,*7E
1511514460.84,14354,11.63,73686.0,3.79,-31.51,-31.79,0,*7D
1511514462.11,14355,11.63,73686.8,3.79,-31.51,-31.85,0,*7F
1511514463.39,14356,11.63,73682.0,3.79,-31.51,-31.61,0,*76
1511514464.61,14357,11.63,73688.3,3.79,-31.45,-31.79,0,*7B
1511514465.84,14358,11.63,73684.0,3.79,-31.45,-31.67,0,*7B
1511514467.09,14359,11.63,73688.3,3.79,-31.33,-31.51,0,*7E
1511514468.29,14360,11.63,73686.8,3.77,-31.17,-31.45,0,*79
1511514469.52,14361,11.63,73682.5,3.77,-30.95,-31.17,0,*74
1511514470.75,14362,11.63,73678.8,3.77,-31.33,-31.61,0,*7B
1511514471.99,14363,11.63,73680.8,3.77,-31.39,-31.51,0,*73
1511514473.27,14364,11.63,73682.0,3.75,-31.57,-31.85,0,*77
1511514474.55,14365,11.56,73678.3,3.75,-31.23,-31.51,0,*7C
1511514475.76,14366,11.63,73680.3,3.77,-31.39,-31.67,0,*73
1511514477.04,14367,11.63,73680.3,3.75,-31.23,-31.39,0,*70
1511514478.31,14368,11.56,73678.8,3.75,-31.23,-31.57,0,*77
1511514479.56,14369,11.63,73686.8,3.75,-30.77,-31.01,0,*75
1511514480.81,14370,11.63,73684.5,3.75,-31.05,-31.39,0,*72
1511514482.03,14371,11.63,73686.0,3.77,-30.95,-31.17,0,*75
1511514483.3,14372,11.63,73684.5,3.75,-31.39,-31.57,0,*77
1511514484.49,14373,11.63,73688.3,3.77,-31.01,-31.33,0,*7D
1511514485.74,14374,11.63,73694.0,3.75,-31.01,-31.23,0,*79
1511514486.94,14375,11.56,73688.5,3.77,-31.01,-31.17,0,*7D
1511514488.22,14376,11.63,73688.3,3.75,-31.23,-31.51,0,*7E
1511514489.43,14377,11.56,73684.8,3.75,-31.33,-31.67,0,*7B
1511514490.66,14378,11.56,73680.3,3.77,-31.33,-31.61,0,*70
1511514491.88,14379,11.56,73686.3,3.75,-31.01,-31.33,0,*75
1511514493.12,14380,11.56,73684.5,3.75,-31.33,-31.57,0,*70
1511514494.37,14381,11.56,73682.3,3.73,-31.23,-31.51,0,*70
1511514495.6,14382,11.56,73686.5,3.73,-31.57,-31.67,0,*75
1511514496.86,14383,11.56,73682.8,3.73,-31.23,-31.39,0,*7C
1511514498.07,14384,11.56,73686.3,3.73,-30.83,-31.17,0,*7C
1511514499.3,14385,11.56,73682.5,3.73,-30.51,-30.67,0,*74
1511514500.52,14386,11.56,73686.8,3.73,-30.77,-31.05,0,*76
1511514501.78,14387,11.56,73686.3,3.75,-30.67,-30.89,0,*75
1511514503.0,14388,11.56,73688.5,3.75,-30.45,-30.67,0,*7A
1511514504.23,14389,11.56,73690.0,3.75,-30.67,-31.01,0,*7A
1511514505.48,14390,11.56,73688.3,3.75,-31.01,-31.23,0,*73